Date String (YYYY-MM-DD hh:mm:ss) UTC,Instrument flags,Ambient pressure (hPa),Sample flow (lpm),Bypass flow (lpm),Sample temperature (°C),Ambient temperature (°C),ASC tube jacket temperature (°C),LED temperature (°C),Box temperature (°C),Sample RH (%),Span deviation,Mass concentration (μg/m³),Mass concentration (μg/m³),Mass concentration (μg/m³)
DateTimeUTC,F1_M11,P_M11,Q1_M11,Q2_M11,T1_M11,T2_M11,T3_M11,T4_M11,T5_M11,U1_M11,ZSPAN_M11,X0_M11,X2_M11,X1_M11
2022-11-06 08:00:00,,0816.3,5.00,0.00,24.0,22.4,00.0,32.9,25.7,17.0,0000.0,0001.66,0000.26,0000.18
2022-11-06 08:01:00,,0816.4,4.99,0.00,24.0,22.4,00.0,32.9,25.8,17.0,0000.0,0001.70,0000.27,0000.18
2022-11-06 08:02:00,,0816.4,5.01,0.00,24.0,22.4,00.0,32.9,25.7,17.1,0000.0,0002.27,0000.28,0000.18
2022-11-06 08:03:00,,0816.3,5.01,0.00,24.0,22.4,00.0,32.9,25.7,17.1,0000.0,0004.07,0000.28,0000.17
2022-11-06 08:04:00,,0816.3,5.01,0.00,24.0,22.4,00.0,32.9,25.8,17.1,0000.0,0004.07,0000.27,0000.17
2022-11-06 08:05:00,,0816.4,5.00,0.00,24.0,22.4,00.0,32.8,25.7,17.0,0000.0,0004.86,0000.26,0000.17
2022-11-06 08:06:00,,0816.4,5.00,0.00,23.9,22.4,00.0,32.8,25.7,16.9,0000.0,0005.28,0000.26,0000.17
2022-11-06 08:07:00,,0816.4,4.98,0.00,23.9,22.4,00.0,32.8,25.7,17.0,0000.0,0005.28,0000.26,0000.17
2022-11-06 08:08:00,,0816.4,5.01,0.00,23.9,22.4,00.0,32.8,25.7,17.1,0000.0,0005.23,0000.24,0000.16
2022-11-06 08:09:00,,0816.4,5.01,0.00,23.9,22.3,00.0,32.8,25.7,17.1,0000.0,0005.30,0000.25,0000.16
2022-11-06 08:10:00,,0816.5,4.98,0.00,23.9,22.3,00.0,32.8,25.7,17.2,0000.0,0004.67,0000.27,0000.16
2022-11-06 08:11:00,,0816.5,5.01,0.00,23.9,22.3,00.0,32.8,25.7,17.3,0000.0,0004.14,0000.27,0000.16
2022-11-06 08:12:00,,0816.6,5.01,0.00,23.9,22.3,00.0,32.8,25.7,17.3,0000.0,0004.10,0000.26,0000.16
2022-11-06 08:13:00,,0816.5,5.00,0.00,23.9,22.3,00.0,32.8,25.6,17.3,0000.0,0003.53,0000.26,0000.16
2022-11-06 08:14:00,,0816.5,4.99,0.00,23.9,22.3,00.0,32.8,25.6,17.4,0000.0,0001.76,0000.26,0000.16
2022-11-06 08:15:00,,0816.6,4.99,0.00,23.9,22.3,00.0,32.8,25.6,17.3,0000.0,0001.94,0000.27,0000.16
2022-11-06 08:16:00,,0816.5,5.00,0.00,23.9,22.3,00.0,32.8,25.6,17.4,0000.0,0001.28,0000.28,0000.15
2022-11-06 08:17:00,,0816.9,5.00,0.00,23.9,22.3,00.0,32.8,25.6,17.4,0000.0,0000.98,0000.28,0000.15
2022-11-06 08:18:00,,0816.7,5.00,0.00,23.9,22.3,00.0,32.8,25.6,17.5,0000.0,0001.00,0000.29,0000.15
2022-11-06 08:19:00,,0816.7,5.00,0.00,23.9,22.3,00.0,32.8,25.6,17.5,0000.0,0001.00,0000.30,0000.16
2022-11-06 08:20:00,,0816.5,5.00,0.00,23.8,22.3,00.0,32.8,25.6,17.5,0000.0,0000.91,0000.26,0000.15
2022-11-06 08:21:00,,0816.5,5.00,0.00,23.8,22.3,00.0,32.8,25.6,17.4,0000.0,0000.82,0000.24,0000.14
2022-11-06 08:22:00,,0816.4,5.00,0.00,23.8,22.3,00.0,32.8,25.6,17.5,0000.0,0000.82,0000.23,0000.14
2022-11-06 08:23:00,,0816.6,5.00,0.00,23.8,22.3,00.0,32.8,25.6,17.5,0000.0,0000.82,0000.24,0000.15
2022-11-06 08:24:00,,0816.6,5.00,0.00,23.8,22.3,00.0,32.7,25.6,17.6,0000.0,0000.79,0000.23,0000.14
2022-11-06 08:25:00,,0816.6,5.00,0.00,23.8,22.3,00.0,32.7,25.6,17.6,0000.0,0000.81,0000.24,0000.15
2022-11-06 08:26:00,,0816.6,4.99,0.00,23.8,22.4,00.0,32.7,25.6,17.5,0000.0,0000.67,0000.23,0000.16
2022-11-06 08:27:00,,0816.7,5.00,0.00,23.8,22.4,00.0,32.7,25.7,17.6,0000.0,0000.36,0000.22,0000.16
2022-11-06 08:28:00,,0816.9,5.00,0.00,23.8,22.4,00.0,32.7,25.6,17.6,0000.0,0000.39,0000.23,0000.16
2022-11-06 08:29:00,,0816.8,5.01,0.00,23.8,22.4,00.0,32.7,25.6,17.6,0000.0,0000.42,0000.25,0000.17
2022-11-06 08:30:00,,0816.8,5.00,0.00,23.8,22.4,00.0,32.7,25.7,17.6,0000.0,0000.40,0000.24,0000.16
2022-11-06 08:31:00,,0816.7,5.00,0.00,23.9,22.4,00.0,32.7,25.7,17.5,0000.0,0000.40,0000.23,0000.16
2022-11-06 08:32:00,,0816.6,5.00,0.00,23.8,22.4,00.0,32.7,25.6,17.4,0000.0,0000.42,0000.24,0000.16
2022-11-06 08:33:00,,0816.6,5.00,0.00,23.8,22.4,00.0,32.7,25.7,17.3,0000.0,0000.41,0000.24,0000.16
2022-11-06 08:34:00,,0816.6,5.00,0.00,23.8,22.4,00.0,32.7,25.7,17.2,0000.0,0000.41,0000.24,0000.16
2022-11-06 08:35:00,,0816.6,5.00,0.00,23.8,22.4,00.0,32.7,25.7,17.1,0000.0,0000.47,0000.27,0000.16
2022-11-06 08:36:00,,0816.6,5.00,0.00,23.9,22.4,00.0,32.7,25.7,16.9,0000.0,0000.47,0000.26,0000.15
2022-11-06 08:37:00,,0817.1,5.01,0.00,23.9,22.4,00.0,32.7,25.6,16.8,0000.0,0000.44,0000.24,0000.15
2022-11-06 08:38:00,,0817.1,5.00,0.00,23.9,22.4,00.0,32.7,25.7,16.8,0000.0,0000.44,0000.24,0000.15
2022-11-06 08:39:00,,0817.1,4.98,0.00,23.8,22.4,00.0,32.7,25.7,16.8,0000.0,0000.37,0000.21,0000.14
2022-11-06 08:40:00,,0816.9,5.01,0.00,23.8,22.3,00.0,32.7,25.7,16.7,0000.0,0000.32,0000.19,0000.13
2022-11-06 08:41:00,,0817.0,5.00,0.00,23.8,22.3,00.0,32.7,25.6,16.6,0000.0,0000.32,0000.19,0000.13
2022-11-06 08:42:00,,0816.8,4.98,0.00,23.8,22.3,00.0,32.7,25.6,16.6,0000.0,0000.34,0000.20,0000.13
2022-11-06 08:43:00,,0816.9,5.00,0.00,23.8,22.4,00.0,32.7,25.6,16.5,0000.0,0000.33,0000.20,0000.13
2022-11-06 08:44:00,,0817.1,5.01,0.00,23.8,22.4,00.0,32.7,25.6,16.6,0000.0,0000.34,0000.20,0000.13
2022-11-06 08:45:00,,0817.4,5.01,0.00,23.8,22.4,00.0,32.7,25.6,16.6,0000.0,0000.34,0000.21,0000.13
2022-11-06 08:46:00,,0817.0,5.01,0.00,23.8,22.4,00.0,32.7,25.7,16.6,0000.0,0000.28,0000.18,0000.13
2022-11-06 08:47:00,,0817.0,5.01,0.00,23.8,22.4,00.0,32.7,25.7,16.8,0000.0,0000.30,0000.19,0000.13
2022-11-06 08:48:00,,0816.9,4.98,0.00,23.8,22.4,00.0,32.7,25.7,17.2,0000.0,0000.33,0000.20,0000.13
2022-11-06 08:49:00,,0817.0,5.02,0.00,23.8,22.4,00.0,32.7,25.7,17.5,0000.0,0000.33,0000.20,0000.13
2022-11-06 08:50:00,,0817.0,4.99,0.00,23.8,22.5,00.0,32.7,25.7,17.3,0000.0,0000.34,0000.21,0000.13
2022-11-06 08:51:00,,0817.0,5.00,0.00,23.8,22.5,00.0,32.7,25.7,17.1,0000.0,0000.40,0000.23,0000.14
2022-11-06 08:52:00,,0817.1,5.01,0.00,23.9,22.5,00.0,32.7,25.7,16.9,0000.0,0000.41,0000.24,0000.14
2022-11-06 08:53:00,,0817.0,5.01,0.00,23.9,22.5,00.0,32.7,25.8,16.8,0000.0,0000.42,0000.25,0000.15
2022-11-06 08:54:00,,0817.1,4.98,0.00,23.9,22.6,00.0,32.7,25.8,16.8,0000.0,0000.43,0000.26,0000.15
2022-11-06 08:55:00,,0817.1,5.01,0.00,23.9,22.6,00.0,32.7,25.9,16.8,0000.0,0000.44,0000.27,0000.16
2022-11-06 08:56:00,,0817.1,5.00,0.00,23.9,22.6,00.0,32.7,25.9,16.9,0000.0,0000.46,0000.27,0000.16
2022-11-06 08:57:00,,0817.0,4.99,0.00,23.9,22.6,00.0,32.7,25.9,16.8,0000.0,0000.48,0000.26,0000.16
2022-11-06 08:58:00,,0817.1,4.98,0.00,23.9,22.7,00.0,32.7,25.9,16.7,0000.0,0000.59,0000.27,0000.16
2022-11-06 08:59:00,,0817.1,5.01,0.00,23.9,22.7,00.0,32.7,25.9,16.6,0000.0,0000.58,0000.28,0000.17
